Theta_e
325 326 327 328 330 332 335 336 338 338 338 338 338 338 337 338 338 338 338 338 339 339 338 338 338 339 339 339 339 339 339 339 339 338 338 338 337 338 338 338 338 337 337 337 338 338 338 338 338 337 336 335 334 334 334 335 334 334 333 332 332 334 337 340 342 342 343 343 343 343 342 341 342 342 342 342 342 344 345 344 343 342 343 341 340
322 325 326 327 328 330 332 334 335 336 337 337 338 337 337 337 336 337 337 337 337 338 338 338 339 338 338 338 338 338 338 339 339 339 339 339 339 338 338 338 338 337 338 338 338 338 338 338 338 338 338 336 334 334 334 334 333 333 332 332 331 332 334 337 340 341 342 342 343 343 342 342 341 341 342 342 342 344 345 345 344 343 343 341 340
321 324 325 325 327 328 329 331 333 333 334 334 335 335 336 336 336 336 336 336 336 337 337 337 338 338 338 338 338 338 338 338 338 338 338 338 339 338 338 338 337 338 338 338 338 338 339 338 338 338 338 338 335 334 334 334 333 332 331 330 330 330 331 334 337 339 340 341 342 343 343 342 341 341 342 341 342 344 345 345 344 343 342 340 340
319 322 323 324 325 326 327 328 331 331 332 332 333 333 334 335 335 335 335 335 335 336 336 336 336 337 337 337 337 337 337 337 337 338 338 338 338 338 338 338 338 338 338 338 338 338 338 338 339 338 338 338 337 336 335 335 335 334 333 330 327 328 329 331 335 337 338 340 341 342 343 342 341 340 341 340 342 345 346 346 345 343 342 341 340
318 320 321 322 323 324 325 326 327 328 329 329 330 330 332 333 333 333 334 334 334 334 335 335 336 336 336 336 336 336 336 335 336 336 337 337 337 337 337 338 337 337 338 339 339 338 339 339 339 338 338 339 338 337 337 336 336 337 337 334 328 325 325 328 332 335 336 337 339 341 343 343 342 341 340 340 342 345 346 345 346 344 343 342 341
316 317 319 320 320 322 323 324 324 324 325 325 326 326 328 329 330 331 331 332 333 333 333 334 334 334 334 334 334 335 335 335 335 335 335 335 336 336 336 337 337 337 338 338 338 339 339 339 339 338 338 339 338 338 338 338 338 338 338 338 335 330 325 323 326 332 335 335 336 340 342 343 342 341 340 339 341 345 346 346 345 345 344 343 342
313 315 316 317 318 319 321 322 321 321 321 322 322 323 323 324 326 327 328 329 329 330 331 331 332 332 332 332 332 333 334 334 334 334 334 334 334 334 334 335 336 336 336 337 337 338 338 338 339 339 339 339 338 337 338 338 338 339 339 338 339 337 333 327 323 327 333 335 336 338 341 342 342 342 341 338 339 344 346 345 345 345 345 344 342
310 312 313 314 316 317 318 319 318 318 318 319 319 320 320 320 321 322 323 324 325 326 327 328 329 329 329 330 330 331 331 331 331 332 332 332 333 332 333 333 334 334 335 336 336 337 337 337 338 338 338 338 338 337 337 337 337 338 338 338 338 338 338 335 328 323 328 335 337 337 338 340 342 342 342 339 338 342 345 345 345 345 345 344 342
307 308 309 311 311 313 315 315 315 314 314 315 315 316 316 317 317 318 318 319 320 321 322 323 323 324 325 325 326 326 326 326 326 327 328 328 329 330 331 332 332 333 333 333 334 336 336 336 337 337 337 337 338 338 337 337 337 337 337 337 337 337 337 339 336 329 324 328 333 336 337 337 341 342 341 340 339 341 344 345 345 345 345 344 342
301 302 304 305 305 307 308 308 309 308 308 308 308 309 310 311 312 312 314 315 316 316 317 318 318 318 319 319 320 321 322 322 322 323 323 324 326 327 328 329 329 330 330 331 332 333 334 335 335 336 337 336 337 337 337 336 336 336 336 336 336 337 337 337 338 337 331 326 327 333 336 334 336 341 342 341 339 340 342 344 345 345 345 344 342
296 298 299 300 299 300 301 301 302 301 301 301 302 302 302 303 304 305 306 307 309 310 311 312 312 313 313 314 315 316 317 318 319 319 320 321 322 324 325 326 326 327 327 328 329 331 333 333 334 334 334 335 336 336 336 336 335 336 336 336 336 336 336 336 337 338 337 334 328 327 332 333 333 337 340 342 340 339 341 344 345 345 345 344 343
295 296 296 297 297 297 297 298 298 299 299 299 299 298 298 298 299 299 299 300 301 302 303 304 304 305 306 307 308 309 310 312 313 314 315 316 318 319 321 322 323 324 325 326 326 329 330 331 332 332 332 332 333 334 335 335 335 335 335 335 335 335 335 335 335 335 336 338 336 330 327 330 332 334 337 340 341 341 340 342 344 345 345 344 343
295 295 296 296 296 297 296 297 297 297 297 297 298 297 297 297 297 297 297 297 297 297 297 298 298 299 299 300 301 302 303 304 305 306 307 309 311 313 314 316 317 319 321 322 323 325 326 326 328 329 330 329 330 332 332 334 334 334 334 335 335 335 334 334 334 334 335 337 338 337 332 327 326 328 334 338 340 341 340 340 342 344 344 344 343
295 295 295 295 296 296 296 296 296 296 296 297 296 296 297 296 297 297 297 297 296 296 296 296 296 296 297 297 297 297 298 298 299 299 300 301 303 304 305 307 310 312 314 315 317 318 319 321 323 324 325 326 328 329 329 330 331 332 333 334 334 334 335 334 333 333 335 336 337 338 338 334 328 324 328 335 338 340 341 341 342 343 344 344 344
294 295 295 295 295 295 295 296 295 296 296 296 296 295 296 296 296 296 296 296 296 296 296 296 296 296 296 296 296 296 296 296 296 296 297 297 297 298 299 300 302 304 305 307 308 310 311 313 316 318 320 321 323 324 324 326 329 331 331 332 333 334 334 333 334 333 334 335 336 337 338 339 336 330 325 328 335 338 340 341 341 343 343 344 344
294 295 294 295 295 295 295 295 295 295 295 295 295 295 295 295 295 295 295 295 295 295 295 295 295 295 295 295 295 295 296 295 296 295 296 296 296 296 296 297 298 299 299 300 301 302 303 305 307 310 314 317 318 319 320 322 325 328 330 331 332 332 333 333 334 334 333 334 335 336 337 337 337 336 331 326 328 334 339 340 341 343 343 343 344
294 294 294 294 294 295 295 295 295 295 295 295 295 295 295 295 295 294 295 295 295 295 295 295 295 295 295 295 295 295 295 295 295 295 295 295 295 295 295 296 296 296 296 297 297 298 298 299 300 302 305 308 312 314 316 318 320 323 326 329 331 331 332 332 334 334 334 333 334 334 336 337 335 335 336 332 326 327 334 340 340 342 343 342 343
294 294 294 294 294 294 295 295 295 295 295 295 295 295 295 295 295 295 295 295 295 295 295 295 295 295 295 295 295 295 295 295 295 295 295 295 295 295 295 295 295 295 295 296 296 296 296 297 297 298 299 300 303 306 309 312 315 318 321 324 327 329 330 330 332 334 334 333 333 333 334 334 334 333 334 335 333 325 326 336 341 340 342 342 342
294 294 294 294 294 294 294 295 294 295 295 295 295 295 295 295 295 295 295 295 295 295 295 295 295 295 295 295 295 295 295 295 295 295 295 295 295 295 295 295 295 295 295 295 295 295 296 296 296 296 297 297 298 300 302 306 309 313 316 319 322 325 328 329 329 331 333 334 333 333 333 332 331 332 333 334 335 331 323 327 338 341 341 342 342
294 294 293 293 294 294 294 294 294 294 295 294 295 295 295 295 295 295 294 295 295 295 295 295 295 295 295 295 295 295 295 295 295 295 295 295 295 295 295 295 294 294 294 294 294 295 295 295 295 296 296 296 296 297 298 300 303 307 312 315 318 321 324 326 328 329 331 333 334 333 333 332 330 330 333 334 334 335 330 322 330 339 341 341 342
293 293 293 293 293 294 294 294 294 294 294 294 294 294 294 294 295 294 294 294 294 294 294 294 294 294 295 295 295 295 295 295 295 295 295 295 295 295 295 295 294 294 294 294 294 294 294 294 294 295 295 295 296 296 296 297 299 302 306 310 314 317 320 323 326 328 330 331 332 332 332 332 331 330 332 334 333 335 335 328 323 331 340 341 341
293 293 293 293 293 293 294 294 294 294 294 294 294 294 294 294 294 294 294 294 294 294 294 294 294 294 294 294 294 294 294 294 294 294 294 294 294 294 294 294 294 294 294 294 294 294 294 293 294 294 294 295 295 295 296 296 297 298 301 304 308 312 316 321 324 326 328 329 330 331 332 332 331 331 331 332 331 332 335 334 327 325 334 339 339
293 293 293 293 293 293 293 293 293 294 294 294 294 294 294 294 294 294 294 294 294 294 294 294 294 294 294 294 294 294 294 294 294 294 294 294 294 294 294 294 294 294 294 294 294 294 294 294 294 294 294 294 294 295 295 295 295 296 297 299 301 304 309 316 321 325 326 327 328 329 330 331 331 331 332 332 330 331 333 334 333 328 330 334 337
293 292 292 292 293 293 293 293 293 293 293 294 294 294 294 294 294 294 294 294 293 293 293 293 294 294 294 293 294 293 294 294 294 294 294 294 294 294 294 294 294 294 294 294 294 294 294 294 294 294 294 294 294 294 294 294 295 295 295 296 296 298 300 305 312 320 325 326 326 327 327 328 329 330 331 332 331 330 331 332 334 333 331 332 334
292 292 292 292 292 292 293 293 293 293 293 294 294 294 294 293 294 293 293 293 293 293 293 293 293 293 293 293 293 293 293 293 293 293 293 293 293 294 294 294 294 294 294 294 294 294 293 293 293 293 293 293 293 294 294 294 294 294 294 294 295 295 296 298 301 308 317 323 325 326 327 328 328 329 329 330 330 330 331 330 331 333 333 333 334
292 292 292 292 292 292 292 292 292 293 293 293 293 293 293 293 293 293 293 293 293 293 293 293 293 292 293 293 293 293 293 293 293 293 293 293 293 293 293 293 293 294 294 294 294 294 293 293 293 292 292 292 292 293 293 294 294 294 294 294 294 295 295 296 297 299 304 312 320 324 325 326 328 328 328 329 329 330 331 330 330 331 333 334 335
292 292 292 292 292 292 292 292 292 293 293 293 293 293 293 293 293 293 293 293 292 292 292 292 292 292 292 292 292 292 292 292 292 292 292 292 292 292 292 292 292 293 293 293 293 293 293 293 293 293 293 292 292 292 293 294 294 294 294 294 294 294 294 295 295 296 298 301 309 318 322 323 324 325 326 327 327 329 331 332 331 331 331 333 334
292 292 292 291 291 292 292 292 292 293 293 293 292 293 293 292 292 292 292 292 292 292 292 292 291 291 291 291 291 291 292 292 292 292 292 292 292 291 292 291 291 291 291 291 291 292 292 292 293 293 293 292 292 292 292 293 294 295 295 294 294 294 294 294 295 295 296 297 300 308 316 321 324 326 326 326 326 326 329 332 332 332 330 331 333
292 292 292 291 291 292 292 292 292 292 292 292 292 292 292 292 292 292 292 292 292 292 291 291 291 291 291 291 291 291 291 291 291 291 291 291 291 291 291 290 290 290 290 289 289 289 290 290 291 291 292 291 292 292 292 292 293 294 295 295 295 295 294 294 295 295 295 296 297 301 306 313 319 324 325 326 326 326 327 330 332 332 331 330 331
292 292 291 291 291 291 291 292 292 292 292 292 291 291 292 291 291 291 291 291 291 291 290 290 290 290 290 289 289 289 289 290 290 290 290 290 290 290 290 290 290 290 289 289 289 289 289 289 288 289 290 290 291 291 291 292 292 292 293 294 295 296 297 296 295 295 296 296 297 298 301 305 310 316 320 322 324 324 325 327 329 332 332 331 331
292 291 291 291 291 291 291 291 291 291 291 291 291 291 291 291 291 290 290 290 290 290 289 289 289 289 289 288 288 288 288 289 289 289 289 290 290 290 290 290 290 290 289 289 289 289 289 289 288 288 288 289 290 291 291 292 293 293 292 293 293 295 296 297 297 296 296 297 297 297 298 301 305 309 314 318 321 324 325 326 326 329 331 332 332
292 291 291 291 291 291 291 291 291 291 290 291 290 290 290 290 290 290 290 290 289 289 289 288 288 288 288 287 287 287 288 288 288 289 289 289 289 289 289 289 289 289 289 289 289 289 289 289 289 288 287 288 289 291 292 293 293 294 294 294 293 294 294 296 297 298 297 297 298 297 297 297 300 305 309 315 319 322 325 325 326 327 329 331 332
291 291 291 291 291 291 291 291 290 290 290 290 290 290 290 290 289 289 289 289 289 289 288 288 287 287 287 287 286 286 286 287 288 288 288 288 288 288 288 288 288 288 288 288 288 288 288 288 288 287 287 287 288 289 291 292 293 294 294 295 295 295 295 295 296 297 298 297 297 298 297 296 297 299 303 309 315 319 323 325 325 326 326 328 331
291 291 291 291 291 291 290 290 290 290 290 290 290 289 289 289 289 289 289 289 288 288 288 287 287 287 286 286 285 285 285 286 286 287 287 287 287 287 287 287 287 287 287 287 287 287 287 287 287 287 286 286 287 288 289 291 292 293 294 294 295 295 296 296 296 296 296 297 297 297 298 297 297 296 297 302 309 314 321 325 324 324 326 327 329
291 291 291 290 290 290 290 290 289 290 290 290 289 289 289 288 288 288 288 288 288 287 287 286 286 286 285 285 285 284 284 284 285 286 286 286 286 286 286 286 286 286 286 286 286 286 285 286 286 286 286 286 286 287 288 289 290 291 292 293 294 295 295 296 296 296 296 296 296 297 297 297 298 298 297 301 307 311 317 323 325 325 325 327 328
291 291 291 290 290 290 290 289 289 289 289 289 289 288 288 288 288 287 287 287 287 287 286 285 285 285 285 285 284 283 283 284 284 286 286 286 285 285 285 285 285 285 285 285 285 284 284 284 284 284 285 285 285 286 286 287 287 288 289 291 292 294 294 295 296 296 296 296 296 296 297 297 298 298 298 300 305 309 313 317 321 325 326 326 327
291 291 291 290 290 290 289 289 289 289 289 289 288 288 287 287 287 287 286 286 286 286 286 285 285 285 285 284 283 283 283 283 284 285 285 285 285 284 285 284 284 284 284 284 284 284 283 283 283 283 283 283 283 284 285 285 286 286 287 288 290 292 293 294 295 295 296 296 296 296 297 297 298 298 298 298 299 303 309 314 316 320 325 326 325
291 291 291 290 290 290 289 289 289 289 288 288 287 287 286 286 286 286 286 286 286 286 285 285 285 285 284 284 283 282 283 283 284 285 285 285 284 284 284 283 283 283 283 283 283 283 283 282 282 283 282 282 282 283 283 284 285 285 286 287 288 290 292 294 295 295 295 296 296 297 297 297 297 298 298 299 299 299 303 311 316 318 324 326 326
291 291 290 290 290 289 289 289 288 288 288 287 286 286 286 286 286 286 286 286 286 285 285 285 284 284 284 283 282 282 282 283 284 285 285 284 284 283 283 283 283 282 283 283 283 282 282 282 282 282 282 282 282 282 282 283 284 285 286 287 288 289 291 293 295 295 296 296 296 296 297 297 297 297 298 298 300 300 301 306 314 319 324 326 326
291 290 290 290 289 289 289 288 288 287 287 286 286 286 286 286 286 286 286 286 286 285 285 285 284 284 283 282 282 282 283 284 285 285 285 284 283 283 283 283 282 282 282 282 282 281 281 281 281 281 281 281 281 282 282 283 284 285 287 288 289 290 291 292 294 295 295 296 296 296 296 296 297 297 298 299 299 301 303 305 311 317 323 325 326
290 290 290 290 289 289 289 288 288 287 287 286 285 285 286 286 286 286 286 286 286 285 285 284 284 283 283 282 282 282 283 284 285 285 284 283 282 281 281 281 281 281 281 281 280 280 280 280 280 280 280 281 281 281 281 282 284 286 288 289 290 290 291 292 293 294 294 295 296 296 296 296 297 297 298 299 300 300 302 304 309 314 320 324 325
290 290 290 290 289 289 289 288 288 287 286 286 285 286 286 286 286 286 286 286 285 285 285 284 283 283 282 282 282 282 283 284 284 284 283 282 281 281 281 281 280 280 280 280 280 280 279 279 279 280 280 280 281 281 281 283 285 287 287 287 288 289 291 292 293 293 294 295 295 296 296 296 296 297 297 298 299 299 300 303 308 312 316 322 326
290 290 290 289 289 288 288 288 287 287 286 285 285 286 285 285 285 285 285 285 285 285 285 284 284 284 283 283 283 283 283 284 284 284 283 282 281 280 280 280 280 280 279 279 279 279 279 279 279 279 280 280 280 281 281 283 284 284 285 285 287 289 290 292 293 294 294 295 295 296 296 296 297 297 298 299 301 302 303 304 308 311 313 319 325
290 290 290 289 288 288 288 288 287 286 286 285 285 285 284 284 284 284 284 284 284 284 284 284 283 284 284 284 283 283 283 284 284 284 283 282 281 280 280 280 280 280 279 279 279 279 279 279 279 279 279 279 280 280 281 281 282 282 284 285 287 288 288 290 292 293 294 295 296 296 296 297 298 298 299 300 302 304 305 306 309 311 313 317 323
289 290 290 289 289 288 288 287 287 286 286 285 285 284 284 283 283 283 283 283 283 283 283 283 282 282 283 282 282 282 282 283 283 283 282 281 280 280 279 278 279 279 278 278 278 278 278 278 278 278 278 279 279 280 280 280 280 281 282 284 285 286 287 289 290 291 292 294 295 296 296 297 297 297 297 298 299 300 302 306 310 313 314 315 321
289 289 290 289 289 289 288 287 287 286 286 285 284 284 283 283 283 282 282 282 282 282 282 281 281 281 281 281 281 281 281 282 282 281 281 280 279 278 278 277 277 278 278 277 277 278 278 278 278 278 278 278 279 279 279 280 280 280 281 282 283 285 286 286 287 287 289 291 293 294 295 296 296 296 297 297 298 299 300 303 306 310 314 315 318
288 289 290 289 289 289 288 287 287 286 285 285 284 283 283 283 282 282 281 281 281 282 282 281 280 281 281 281 280 281 281 282 282 281 281 280 279 279 278 277 277 277 277 277 277 277 277 277 277 277 277 278 278 278 279 279 279 280 280 280 281 282 283 284 285 286 288 290 291 293 295 295 296 296 297 297 297 298 299 299 299 302 308 313 317
288 289 289 289 289 288 288 287 287 286 285 284 284 283 283 282 282 281 281 280 280 281 281 280 280 280 280 280 279 280 281 281 281 281 281 280 279 279 278 277 277 277 277 277 277 277 277 277 277 277 277 277 277 277 278 278 279 279 279 280 280 281 282 283 285 286 287 288 290 292 293 295 296 296 296 297 297 297 298 299 299 298 301 308 315
288 289 289 289 289 288 288 287 286 286 285 284 283 283 283 282 281 281 280 280 280 280 279 279 279 279 279 279 278 279 280 281 281 280 280 280 279 278 278 277 277 276 276 276 276 276 276 276 276 276 276 276 277 277 277 277 277 278 278 279 279 280 281 282 283 285 286 287 288 289 292 294 295 296 296 296 297 297 297 298 300 301 302 304 310
288 289 289 289 288 288 287 287 286 286 285 284 283 283 282 281 281 280 280 280 279 279 279 278 278 278 278 277 277 278 279 280 280 279 279 279 278 278 277 277 276 276 276 276 276 276 276 276 276 276 276 276 276 276 276 276 277 277 277 277 278 278 279 280 281 282 283 286 287 288 290 293 294 296 297 297 296 297 297 298 299 300 302 302 303
288 289 289 289 288 288 287 287 286 285 285 284 283 282 282 281 281 280 279 279 279 278 278 278 278 277 277 277 278 279 279 279 279 279 279 278 277 277 276 276 276 275 275 275 275 275 275 275 275 275 275 275 276 276 276 276 276 276 276 277 277 278 278 279 281 282 284 286 288 289 290 293 294 296 296 296 296 296 296 297 297 298 299 299 297
Wind_Speed
14 15 16 15 15 13 13 13 12 11 8 7 7 6 7 7 7 7 6 5 5 5 5 5 4 5 5 5 5 5 5 6 7 8 9 9 11 11 10 9 10 10 9 9 8 7 7 6 6 6 7 7 7 7 9 10 11 11 11 11 11 11 11 10 11 11 12 12 12 11 11 11 10 10 10 9 8 9 11 11 12 11 10 10 10
12 12 13 13 13 12 11 12 13 12 11 8 8 8 8 8 9 9 8 7 7 6 6 6 6 6 7 7 7 7 6 6 6 7 7 7 8 9 9 9 9 9 9 9 9 8 8 7 7 7 7 7 8 9 9 10 11 12 13 13 13 12 11 11 11 12 12 13 13 13 12 12 11 10 10 10 9 10 12 12 12 12 12 11 12
9 9 10 10 11 12 10 11 12 11 12 11 9 9 8 9 9 9 9 9 8 8 8 7 7 7 7 8 8 8 8 8 8 8 8 8 8 8 8 8 9 9 9 10 10 10 10 9 8 8 7 8 10 10 11 11 10 10 12 13 14 14 12 12 12 12 13 13 14 14 14 13 12 11 11 11 10 11 13 13 13 13 14 12 13
9 8 8 7 10 13 10 10 10 8 10 10 9 8 8 9 9 8 9 9 9 9 9 9 8 8 7 8 8 8 8 8 8 8 8 9 9 9 9 9 8 8 9 9 10 11 11 10 10 9 9 10 10 11 11 12 12 11 11 11 12 14 14 13 13 13 13 14 14 15 15 13 13 12 12 12 11 12 14 15 14 14 15 14 14
9 8 7 7 9 12 12 11 10 9 9 8 8 7 6 7 8 8 8 9 9 10 10 10 9 9 8 8 9 8 8 9 9 9 8 8 9 9 9 10 9 9 9 9 10 11 11 11 12 11 11 11 10 11 12 12 13 12 13 12 11 12 14 15 14 14 13 14 14 15 15 14 14 14 13 12 12 12 14 16 16 16 16 16 16
10 9 9 10 10 12 13 13 12 11 10 10 10 9 7 6 7 6 5 6 7 8 8 9 9 9 9 9 9 9 9 9 10 10 10 10 9 9 9 10 9 10 10 10 10 11 11 11 11 12 12 12 11 11 12 13 13 13 14 13 12 12 13 14 15 15 14 15 15 15 15 15 15 15 15 13 12 12 15 17 17 16 17 18 17
10 9 10 10 12 12 12 12 12 10 10 10 10 9 9 8 7 7 6 6 6 5 5 5 5 6 8 8 9 9 10 10 10 10 11 10 10 10 10 10 10 9 10 10 11 11 11 11 12 12 11 12 12 13 13 14 14 14 14 13 13 12 12 13 13 15 15 15 15 14 15 16 16 16 16 14 13 13 15 17 16 15 17 18 18
9 9 10 11 12 12 11 11 11 10 10 9 9 9 8 8 8 8 8 7 7 6 6 5 4 5 5 6 7 7 9 9 9 9 10 10 10 10 10 11 11 10 10 10 10 11 11 12 13 13 12 12 12 13 14 15 15 15 15 15 14 14 14 14 13 14 17 15 15 15 15 16 17 18 17 15 14 13 15 16 16 16 17 18 18
10 10 10 11 12 11 11 11 11 11 10 10 9 9 8 8 8 8 8 8 8 8 8 7 7 6 6 6 6 7 8 8 8 8 8 9 9 10 10 10 11 11 10 10 10 11 11 12 13 13 13 14 13 13 13 15 15 16 16 16 16 16 16 16 14 13 16 17 18 17 15 17 18 19 19 16 15 15 15 16 17 16 17 18 19
12 12 12 13 14 12 12 12 12 13 12 12 11 11 10 10 9 8 8 8 7 7 7 8 8 8 8 7 7 7 8 8 8 9 9 9 9 9 9 9 10 12 12 11 11 11 12 12 13 13 13 14 13 13 13 14 15 17 18 18 18 17 17 18 18 15 15 16 19 19 17 18 19 20 21 18 17 16 16 17 18 18 18 18 19
14 14 13 15 15 14 14 14 14 14 14 14 13 13 12 11 11 10 9 8 8 7 7 7 7 7 8 7 8 8 8 8 9 9 10 9 9 8 8 8 8 10 12 12 12 12 12 13 13 13 14 14 13 13 13 14 15 16 17 18 19 19 19 18 19 18 17 17 18 20 19 19 19 21 21 20 19 18 18 18 19 19 20 20 20
15 15 14 15 15 14 13 13 14 14 14 13 13 13 12 12 12 12 11 10 10 9 9 8 8 7 7 7 8 8 8 9 9 10 10 10 10 10 10 10 10 9 10 11 12 12 12 12 13 13 15 15 15 14 14 14 14 16 16 17 18 19 20 19 19 20 20 19 19 20 20 20 20 22 22 22 21 19 19 20 21 21 22 21 22
15 15 14 14 14 14 13 13 13 13 12 12 12 12 11 11 11 11 11 11 11 10 10 10 9 9 9 8 8 9 9 10 10 11 11 11 11 12 12 12 12 12 12 12 12 12 13 13 13 13 15 16 16 16 15 15 15 15 16 17 18 18 20 21 21 21 20 19 19 19 21 21 22 23 23 22 22 21 21 22 22 22 23 23 24
14 14 14 13 13 13 13 12 12 12 12 12 11 11 11 10 10 10 10 10 11 11 11 10 10 10 10 10 10 10 10 10 11 11 12 12 12 13 13 13 13 14 14 13 14 14 14 15 15 16 16 17 17 18 18 17 17 17 17 17 18 18 19 21 22 21 20 20 20 20 20 22 23 23 23 24 23 23 23 23 23 23 24 24 25
13 13 13 12 12 12 12 12 12 11 11 12 12 12 11 11 11 11 11 10 10 10 10 11 11 11 10 10 10 10 10 11 11 12 12 13 13 13 13 13 13 14 14 14 15 15 15 15 16 17 18 18 18 19 19 19 18 18 18 18 19 19 19 20 21 21 22 21 22 21 19 21 24 23 23 25 25 25 24 25 25 25 25 25 26
12 12 12 12 11 11 11 11 11 11 11 11 12 12 12 12 13 13 12 12 12 11 11 11 11 11 11 11 11 11 11 11 11 12 12 13 13 13 13 13 14 14 15 15 15 16 16 16 16 17 17 19 20 20 20 20 19 19 20 20 20 20 20 20 20 21 22 22 22 22 20 20 24 25 23 24 26 26 26 26 26 26 26 26 26
11 10 10 11 11 11 11 11 10 11 11 11 12 12 13 13 13 13 14 14 14 14 13 13 13 13 13 13 13 13 13 13 13 13 13 13 14 14 14 14 14 15 16 16 16 16 16 16 16 17 17 18 19 20 21 21 21 21 22 22 21 21 21 21 21 21 21 22 22 23 22 21 25 26 25 25 25 27 27 27 28 27 27 27 28
11 9 10 10 10 10 10 10 10 10 10 11 11 12 12 12 13 13 14 14 14 14 14 14 14 14 14 14 14 15 15 15 15 16 16 16 16 16 15 15 15 16 16 17 17 17 17 17 17 17 18 18 19 20 21 21 21 22 23 24 24 23 23 22 22 23 22 24 24 23 23 24 28 29 27 26 26 26 28 29 29 29 29 29 29
11 9 10 10 10 10 10 10 9 10 10 10 11 11 11 11 12 12 13 13 13 14 14 14 14 14 15 15 15 15 16 16 16 17 17 18 18 18 18 17 17 18 18 18 18 18 18 19 18 18 18 19 20 20 21 21 21 21 22 24 25 25 25 25 24 24 23 24 25 25 25 26 28 29 28 28 27 26 28 30 30 30 30 29 29
11 9 9 9 9 9 9 9 9 10 9 10 10 10 11 10 11 11 12 13 13 13 14 14 14 14 15 15 16 16 16 17 17 17 18 18 19 19 19 20 20 20 20 20 19 19 19 19 19 20 20 20 21 21 21 22 22 21 21 22 24 26 26 27 25 25 24 24 26 26 26 27 28 29 28 28 28 27 28 30 32 32 31 30 29
11 9 9 8 9 8 8 8 9 9 9 9 9 9 10 10 10 11 11 12 13 13 14 14 14 15 16 16 17 18 18 19 19 19 19 19 19 19 20 20 21 22 22 22 22 22 20 20 20 20 21 21 22 21 21 21 22 22 22 21 22 24 25 27 25 24 24 25 27 27 28 28 28 29 28 29 29 28 28 30 32 33 33 32 31
11 10 9 8 8 8 8 7 8 8 7 8 8 8 9 9 9 10 11 11 12 13 13 14 14 15 16 17 18 19 19 20 21 22 22 22 22 22 22 22 22 23 23 23 24 24 23 22 22 22 22 22 23 23 23 22 22 22 23 22 22 22 22 24 24 24 25 25 27 28 29 29 29 30 29 30 31 30 30 30 32 33 34 34 35
12 11 10 8 7 7 7 6 7 7 6 7 7 7 8 8 9 9 10 11 12 12 13 13 14 15 15 16 17 18 18 19 20 21 21 22 23 24 24 25 25 25 25 25 25 25 25 25 24 24 24 24 24 24 24 24 24 23 23 23 22 22 21 22 22 23 25 27 28 28 29 30 30 30 30 31 31 32 32 32 32 33 34 35 37
14 12 10 9 7 7 6 5 5 5 5 6 6 6 7 7 8 9 10 10 11 12 13 13 14 15 15 16 17 17 18 18 19 20 20 21 22 23 24 25 25 26 26 26 27 27 27 27 27 27 27 27 27 26 26 26 26 25 25 24 24 24 23 22 22 23 24 27 29 30 30 31 32 31 32 33 33 33 33 34 34 34 35 36 37
15 12 11 9 8 6 5 4 4 4 5 5 5 6 6 6 7 8 9 10 11 12 13 13 14 15 16 17 17 18 18 19 20 20 21 22 22 23 23 24 25 25 26 27 27 27 28 28 29 29 29 29 29 28 27 27 27 27 27 27 27 27 26 25 25 24 24 26 29 30 30 32 33 33 33 35 36 35 34 35 36 36 36 36 38
14 12 10 9 7 6 5 4 3 4 4 5 5 5 5 6 7 8 9 10 11 12 12 13 14 15 16 16 17 18 18 19 20 21 21 22 22 23 23 23 24 24 25 26 27 27 27 28 29 29 30 30 30 29 28 28 28 27 28 28 29 29 29 29 28 27 26 27 29 31 32 33 34 34 35 37 38 37 37 37 37 38 39 37 38
15 12 10 9 7 6 5 3 3 3 4 4 4 4 5 6 7 8 8 9 10 10 11 13 13 14 15 15 16 17 18 19 20 20 21 22 23 23 24 24 24 24 24 25 25 26 27 27 28 28 29 30 31 30 29 28 27 28 29 29 29 30 31 31 31 30 29 29 29 30 33 33 34 37 39 40 40 40 39 38 38 38 40 40 39
15 12 10 9 7 6 5 4 3 3 3 3 2 3 4 5 6 6 7 8 8 9 10 11 12 12 13 14 15 15 17 18 19 19 20 21 22 23 24 25 25 25 25 25 25 26 26 26 27 27 28 29 30 31 31 30 29 28 28 30 30 30 32 32 33 33 33 32 31 31 32 32 32 36 39 41 42 42 40 39 39 40 41 41 41
16 14 12 10 8 7 5 4 3 3 2 2 2 2 3 4 4 5 6 6 7 8 9 9 10 11 12 13 14 15 16 16 18 19 20 21 23 24 25 25 25 26 26 26 26 26 26 26 26 26 27 28 29 30 31 32 32 30 29 30 30 29 31 33 34 34 34 34 34 33 32 32 33 34 37 39 42 44 43 41 41 41 41 42 42
17 15 13 10 8 7 6 5 4 4 3 2 2 2 3 3 4 4 5 5 6 7 7 8 9 10 11 13 14 15 16 17 18 19 21 22 23 24 25 26 26 27 27 27 26 27 27 27 26 25 25 27 28 29 30 31 32 32 32 32 31 29 28 30 33 34 35 35 35 35 34 33 35 36 38 40 42 45 45 44 43 42 43 43 43
17 15 13 11 9 8 7 6 5 5 4 3 3 2 3 3 4 4 4 5 6 6 7 7 8 9 11 12 14 15 16 17 18 19 20 21 23 24 24 25 26 27 27 28 28 28 28 27 26 25 25 25 25 26 27 29 30 31 32 33 34 32 30 28 29 32 34 34 34 36 37 35 35 36 38 40 41 43 44 44 45 44 44 43 43
18 16 14 11 9 9 8 8 7 6 5 4 3 2 2 2 3 3 3 4 5 6 6 7 8 9 11 12 13 14 15 16 17 18 19 20 21 22 23 24 25 26 26 28 28 29 29 28 28 27 26 26 25 24 23 24 26 28 29 30 32 33 34 32 30 29 31 34 35 36 38 38 38 37 37 39 40 42 44 45 45 44 45 45 44
19 17 15 12 11 10 10 9 8 7 6 5 3 2 2 1 2 2 3 4 5 5 6 6 8 9 10 11 12 13 13 14 16 17 18 19 20 21 21 22 23 24 26 27 28 29 29 29 30 29 28 27 26 25 24 23 24 25 25 26 28 29 31 34 34 32 31 32 34 36 38 40 41 41 40 39 40 42 44 46 47 47 47 47 46
20 18 16 14 13 12 11 11 9 8 6 5 4 3 2 1 0 1 2 3 4 5 5 6 7 8 9 10 11 13 13 14 15 17 18 19 20 21 21 21 22 23 25 26 27 28 28 29 30 29 29 28 25 25 24 24 25 25 25 25 26 26 28 31 32 34 35 34 33 34 37 39 40 42 44 42 41 42 43 46 49 50 49 48 47
20 19 17 15 14 13 12 12 10 8 7 6 4 4 3 2 1 1 1 3 4 4 5 5 6 7 9 10 12 13 13 13 15 17 19 20 21 21 21 21 22 23 24 25 25 26 27 27 28 29 30 29 29 29 29 29 30 30 29 28 27 26 27 30 30 32 34 35 36 35 35 36 38 41 43 41 40 41 43 44 47 49 50 50 48
22 20 18 16 15 14 14 13 11 9 7 6 5 5 4 2 1 1 1 3 4 4 5 5 6 7 8 10 11 13 13 14 16 19 20 21 21 22 22 22 23 23 24 24 25 25 25 26 26 26 27 30 33 34 35 35 37 37 34 31 29 28 29 30 31 32 32 32 36 37 36 36 37 39 41 41 40 40 42 45 47 48 50 51 50
23 21 19 18 17 15 15 13 11 10 8 7 6 5 4 3 2 1 1 3 4 4 4 5 6 7 8 10 11 13 14 15 17 20 21 22 22 22 22 23 23 24 24 25 25 25 25 25 23 22 24 27 29 30 31 31 34 37 37 34 32 30 30 30 31 33 33 34 35 36 36 37 36 38 40 42 44 43 42 43 47 49 50 51 51
24 22 20 19 17 16 15 13 12 10 9 8 7 6 5 3 3 2 2 3 4 4 4 5 6 7 8 10 12 14 15 16 19 21 22 22 23 23 23 24 24 25 25 25 26 25 25 23 22 24 24 23 23 24 26 27 29 32 33 34 33 31 31 31 31 32 33 35 36 36 36 36 36 36 37 40 44 46 45 43 44 48 50 51 51
25 23 21 19 17 16 15 14 12 11 10 9 8 7 5 4 3 2 2 3 4 4 5 6 7 8 9 10 12 14 15 17 19 20 21 22 23 23 24 24 25 26 26 27 27 27 26 25 25 26 26 23 22 24 26 28 29 29 29 31 32 32 32 31 32 33 33 35 36 37 36 37 37 37 38 40 42 44 45 44 42 45 49 51 51
27 25 23 21 19 17 16 15 14 12 11 10 9 8 6 4 3 3 3 3 5 5 5 7 7 8 9 10 12 14 16 17 19 20 21 22 23 23 24 25 26 26 27 28 28 27 27 26 25 25 26 24 21 21 23 24 27 29 28 29 29 30 32 33 34 35 35 35 35 36 37 37 37 37 37 38 39 41 42 43 43 43 46 49 50
28 27 25 23 20 18 18 16 15 14 13 12 10 8 6 5 4 4 4 4 5 6 6 7 8 9 10 11 13 15 16 18 19 21 22 22 23 24 25 25 26 27 27 27 27 27 26 24 23 23 23 23 21 17 17 21 23 22 20 23 26 26 29 33 35 36 35 35 34 35 36 35 35 36 37 37 38 42 44 43 43 43 45 47 49
31 30 28 25 22 19 18 17 16 15 14 13 11 8 6 5 4 4 5 5 5 7 7 8 9 10 11 13 14 16 17 18 20 21 22 23 24 24 25 26 27 27 28 28 28 28 27 23 21 22 21 21 21 18 16 16 15 15 15 17 20 22 24 29 33 34 34 35 36 36 36 37 38 39 39 38 39 42 45 45 43 44 45 46 48
33 32 30 27 24 21 20 18 17 16 14 13 11 8 6 5 4 4 5 6 6 7 9 9 10 11 12 13 15 16 17 19 20 22 23 24 24 25 26 27 28 28 29 30 29 29 29 25 21 21 22 22 22 19 15 13 13 15 15 11 11 14 16 17 20 25 28 31 32 33 34 35 36 37 35 35 36 37 40 42 42 44 46 47 48
34 34 32 29 27 24 21 19 18 16 14 13 10 8 6 5 5 4 5 7 7 8 9 10 11 12 14 14 15 16 18 19 20 22 23 24 25 25 27 27 28 28 29 30 30 29 28 26 23 21 21 23 23 20 15 14 14 12 8 7 7 8 11 9 10 18 24 26 28 31 32 32 32 34 32 31 33 35 36 38 41 43 46 48 49
35 36 35 32 29 26 22 19 17 15 14 12 10 9 7 5 5 5 5 7 8 9 10 11 11 13 15 15 16 16 18 19 21 22 23 24 24 25 26 27 28 28 28 28 29 28 27 25 23 21 19 20 24 24 19 15 16 14 11 9 7 6 8 9 13 18 21 23 28 30 31 32 32 33 32 33 36 39 38 36 37 41 45 48 48
37 38 37 34 31 27 23 19 17 15 14 12 11 9 8 6 6 6 6 7 10 10 10 11 13 14 15 17 17 17 18 20 21 22 23 24 25 25 26 26 27 28 28 28 29 28 27 25 22 20 20 19 21 26 25 19 17 19 20 20 18 15 13 12 11 13 18 23 29 31 32 34 34 34 35 35 35 36 36 35 37 38 43 49 49
38 38 37 35 32 28 23 20 17 15 14 13 11 10 9 7 7 7 7 8 11 11 11 12 14 15 16 17 18 18 19 21 22 23 24 25 26 27 27 27 28 29 29 29 30 29 28 26 23 21 21 21 20 24 27 23 20 20 21 24 29 29 26 20 14 12 15 20 24 29 34 34 33 35 35 34 32 32 33 37 41 42 42 47 50
38 38 38 37 33 29 25 21 17 15 14 13 12 10 9 8 7 8 9 10 11 12 12 13 14 15 17 18 18 19 20 22 23 24 25 26 27 28 28 28 29 30 30 30 31 31 29 28 26 24 23 23 21 23 26 24 22 22 20 21 26 28 29 29 27 21 13 13 18 23 30 33 33 36 35 34 33 33 32 33 39 42 42 44 46
37 39 40 37 33 30 26 21 17 15 14 13 12 10 9 9 8 9 10 11 11 12 13 14 15 15 17 18 19 20 22 23 24 25 26 26 27 28 29 29 30 31 31 31 32 32 31 31 29 27 25 25 24 24 27 26 25 26 23 22 24 25 26 29 31 28 19 16 16 15 21 26 29 32 34 33 31 30 31 32 34 37 39 41 41
37 39 39 37 34 31 26 22 18 15 14 13 12 11 10 9 9 9 11 11 11 12 13 15 16 16 18 19 19 21 24 25 26 26 27 28 28 28 29 30 31 33 33 32 33 33 33 31 30 29 28 28 28 26 28 28 27 29 26 24 26 23 20 20 23 24 21 19 17 16 17 18 19 23 28 32 31 29 29 30 32 34 36 41 42
35 37 38 37 35 32 28 23 18 15 15 13 12 11 10 10 10 10 11 11 10 12 14 16 16 17 19 20 21 23 25 26 27 28 29 29 29 29 30 31 33 34 35 35 34 34 33 31 30 30 29 29 30 29 30 30 29 31 30 29 30 27 21 18 20 21 18 15 15 16 17 18 20 22 26 31 31 28 28 30 32 34 38 43 46
Wind_Direction
13 24 28 33 29 17 18 26 34 37 38 27 23 26 16 15 14 10 0 346 333 329 327 328 331 331 329 328 332 332 339 341 343 346 345 346 347 348 348 344 338 342 346 343 343 342 337 333 331 325 323 323 313 297 286 284 287 287 283 283 284 283 284 288 288 282 273 268 269 272 273 272 273 266 261 261 262 256 252 247 240 235 230 221 209
17 25 28 34 34 28 22 29 36 41 44 38 37 35 29 23 21 20 15 11 4 354 343 329 329 331 329 330 327 323 322 323 324 320 320 323 327 331 330 328 328 334 337 333 333 335 334 331 329 323 318 317 314 305 296 290 287 288 283 280 281 282 281 283 286 287 281 273 270 271 271 269 271 270 261 261 266 259 252 248 238 232 232 226 212
43 40 39 38 40 37 30 35 36 40 41 41 44 41 42 34 28 26 20 24 24 20 14 1 353 348 345 345 341 336 332 328 325 319 314 315 317 318 314 313 319 328 331 328 328 329 327 327 327 323 317 310 312 311 308 307 306 302 295 286 279 279 280 281 282 284 283 280 276 273 271 268 268 268 262 264 265 256 251 248 238 232 234 232 220
71 64 56 48 51 48 42 43 43 42 39 41 46 48 50 44 42 39 36 36 31 32 30 24 18 11 3 1 358 352 347 342 338 332 326 323 321 319 316 313 315 319 324 324 322 323 322 322 322 322 319 310 311 316 315 316 317 317 314 305 286 277 276 278 280 282 283 283 284 277 271 267 266 266 264 266 263 254 251 249 242 237 236 235 226
86 83 77 70 66 59 52 54 58 58 56 55 56 61 62 53 53 51 51 49 46 43 39 36 31 24 14 11 8 1 356 353 352 346 342 340 335 331 327 322 317 315 317 320 317 315 316 316 316 316 314 312 313 312 311 312 312 313 314 317 309 288 275 274 276 281 282 283 286 280 271 266 265 265 264 265 261 255 251 249 244 241 240 234 226
91 94 90 86 82 70 60 60 65 68 69 68 68 69 72 64 55 51 45 45 50 49 48 45 40 33 25 19 16 11 5 1 0 357 354 353 348 347 343 336 329 321 319 323 318 313 313 311 310 310 310 310 311 306 302 303 303 306 307 309 314 307 291 280 273 274 279 283 285 281 273 267 265 264 264 265 261 256 252 250 245 243 241 233 225
97 100 96 94 88 80 73 70 70 73 74 72 73 71 72 68 59 55 47 42 41 40 40 35 33 28 20 16 15 14 10 10 9 3 359 357 356 353 352 350 342 330 324 326 327 324 319 311 307 307 306 306 306 305 303 301 301 302 303 301 302 306 305 300 283 271 273 280 282 280 276 270 266 264 263 264 261 255 254 252 246 241 239 233 226
106 105 103 99 92 89 86 83 78 78 77 76 78 75 73 68 65 61 55 53 48 44 37 27 18 8 4 359 0 3 3 6 4 360 360 357 357 353 351 351 347 339 327 324 329 330 328 320 316 313 307 305 303 300 300 300 302 301 301 300 299 298 301 307 298 278 271 274 277 278 278 273 267 264 262 263 262 256 255 254 248 240 236 232 227
111 109 108 103 96 96 94 91 86 82 81 80 80 78 76 71 68 65 61 58 53 50 44 40 35 25 18 9 5 4 359 357 351 352 355 354 357 354 349 345 341 340 333 328 329 330 331 327 324 323 315 308 301 295 294 295 297 299 299 300 299 297 297 300 301 291 276 271 273 276 277 276 272 267 263 262 262 259 256 254 249 240 232 231 229
108 110 111 106 99 99 98 95 91 88 86 84 82 80 78 76 73 69 65 60 55 49 45 41 37 32 27 23 19 14 8 1 354 350 347 348 356 355 348 342 337 333 330 328 327 331 329 324 323 323 321 315 308 300 297 294 294 296 297 298 298 297 296 295 295 294 286 278 273 272 274 275 275 270 265 263 262 259 257 254 249 243 232 228 230
106 110 112 109 103 101 100 96 93 90 87 84 81 80 77 76 74 71 68 62 58 51 46 40 34 30 23 20 17 14 11 4 357 351 346 344 342 340 337 334 335 330 328 323 323 334 330 325 325 319 315 313 311 308 302 297 293 293 294 295 296 296 295 294 292 290 289 287 280 274 272 273 273 272 268 264 262 259 259 257 249 243 237 229 229
107 108 110 112 109 105 103 100 96 92 88 85 81 78 76 73 70 67 65 61 58 54 49 44 39 34 26 21 18 15 10 6 1 355 351 346 339 333 329 325 324 319 320 318 316 326 326 325 325 318 311 305 303 304 302 298 293 291 292 293 294 295 295 294 292 290 288 286 283 280 275 272 270 270 269 266 262 258 258 257 251 244 239 233 229
106 105 106 107 108 106 104 103 101 97 93 89 85 80 76 72 69 65 62 58 54 51 48 44 40 35 31 25 21 18 12 9 4 0 356 352 346 341 339 337 333 326 321 318 313 313 312 312 312 309 307 302 297 297 298 296 292 289 288 289 290 292 295 296 293 290 287 283 281 281 280 277 272 269 268 266 262 258 256 256 253 247 242 237 232
104 102 100 99 100 102 99 99 96 95 92 88 86 81 77 72 68 63 58 55 51 46 44 40 37 32 28 24 20 17 12 9 4 1 358 354 351 348 348 347 344 339 332 328 324 320 316 312 307 303 302 301 297 295 295 293 292 290 287 287 287 287 292 293 291 289 285 282 280 279 278 277 276 271 268 267 263 259 256 255 254 250 246 240 237
104 100 99 98 96 96 95 94 91 89 88 85 81 77 74 69 65 61 56 52 48 42 39 35 33 29 25 22 19 16 11 8 5 0 357 354 352 351 351 351 348 344 338 334 330 327 326 323 316 309 303 302 300 299 296 292 291 290 286 284 283 283 285 285 285 287 285 282 281 279 276 275 277 275 270 266 265 262 258 254 253 252 249 243 240
108 103 101 100 97 96 93 90 88 85 84 82 79 75 70 66 62 58 54 50 47 43 38 35 31 28 24 22 18 15 13 9 6 2 358 354 351 349 349 350 348 344 341 339 335 330 328 327 325 320 312 306 303 302 298 293 288 285 281 278 279 279 280 281 280 282 283 281 280 279 276 275 277 277 274 269 266 264 261 256 253 253 252 246 242
113 111 104 101 100 98 94 89 86 83 81 79 77 74 69 65 62 57 54 49 46 42 38 36 32 31 27 24 21 17 15 11 8 4 360 355 352 350 349 348 345 341 338 338 337 334 330 327 325 323 321 316 310 304 300 296 291 286 281 278 279 279 277 278 278 277 278 278 277 277 276 276 277 278 277 273 269 265 262 258 255 254 252 248 244
120 117 108 102 101 98 96 92 87 82 78 76 72 71 67 63 60 56 53 48 45 41 37 35 31 30 28 25 23 20 17 14 11 7 4 0 356 354 353 352 347 341 337 336 334 332 331 328 325 322 321 319 315 309 305 302 297 291 285 281 279 278 276 275 275 273 274 275 274 274 274 274 277 279 277 275 273 268 263 259 257 254 252 250 246
126 121 113 106 102 99 97 93 88 84 78 75 71 69 65 60 58 54 51 47 42 39 35 33 29 27 25 24 21 20 18 15 13 10 8 4 1 359 358 357 352 347 342 339 335 332 330 328 325 322 319 316 314 311 309 307 303 298 292 286 282 278 276 275 274 272 271 272 272 271 270 272 275 277 276 273 272 270 265 260 258 256 252 251 248
129 127 119 111 106 103 99 93 88 83 77 74 70 67 64 59 56 53 49 44 39 36 32 29 26 24 22 20 17 16 15 13 12 10 8 6 4 2 0 360 356 352 349 346 342 337 333 329 326 322 319 315 311 309 309 308 305 303 298 292 286 281 278 277 276 274 270 269 270 270 270 270 272 274 274 272 270 269 267 262 259 258 255 251 250
134 133 126 118 114 110 102 95 89 83 77 73 69 64 61 56 53 49 46 40 36 32 28 24 21 20 18 16 14 13 12 10 9 8 7 6 5 3 1 359 356 353 350 348 346 342 339 334 329 324 321 317 314 310 307 305 304 303 301 297 292 287 283 280 279 278 273 269 268 269 270 270 270 271 271 270 269 267 267 265 260 259 258 253 251
142 140 136 128 123 116 107 99 91 85 79 75 70 64 59 54 50 45 41 35 32 28 23 20 17 15 14 12 11 10 10 8 7 5 4 4 3 2 1 359 356 354 351 349 346 343 342 339 334 329 325 321 318 316 312 307 304 303 301 300 299 295 291 286 284 281 276 273 270 269 269 271 270 270 269 268 268 267 266 265 262 259 259 256 254
154 151 146 136 129 121 112 105 94 88 82 77 70 64 58 50 45 41 37 31 28 25 20 17 13 11 10 9 9 8 7 6 5 3 1 0 0 360 359 358 356 355 352 350 347 344 341 339 336 333 329 326 324 321 319 315 310 307 304 304 303 300 296 291 288 284 280 276 273 271 270 270 270 270 270 267 265 266 265 265 263 258 257 258 256
164 158 149 141 136 127 118 107 97 93 86 78 70 62 55 46 41 37 33 30 26 23 20 16 13 11 9 9 9 7 5 4 3 1 359 358 357 357 356 355 354 354 352 349 348 345 342 338 336 334 332 330 329 326 323 320 316 312 309 307 305 302 299 295 290 285 282 280 278 277 275 272 269 268 268 267 264 264 263 263 263 260 256 256 257
163 156 150 148 143 135 126 111 102 97 88 78 69 60 54 45 40 37 32 30 26 23 20 16 14 12 10 10 7 5 4 2 2 1 0 359 358 356 355 354 352 351 350 348 347 346 343 340 337 334 332 331 329 328 325 322 319 315 312 308 305 303 300 297 292 286 281 279 277 279 280 276 272 269 268 267 265 263 263 262 262 262 258 255 255
162 159 157 155 150 144 138 125 116 100 87 73 62 55 48 39 36 35 30 27 24 21 19 17 16 13 10 8 5 4 3 2 2 2 2 1 360 358 357 355 353 352 350 348 346 345 343 340 337 334 331 329 327 326 324 322 320 316 312 308 305 303 301 298 295 291 285 278 273 274 276 276 274 272 270 269 267 263 262 262 260 260 260 257 254
167 167 162 159 158 154 153 147 133 109 92 72 59 49 38 31 29 25 21 21 19 16 16 18 17 14 11 8 6 4 4 3 3 3 2 2 0 359 358 358 356 354 353 350 347 345 343 340 336 333 329 326 324 323 321 320 318 316 313 310 307 304 301 299 297 293 290 284 277 271 271 273 274 274 271 270 269 264 261 261 260 259 259 258 256
170 170 167 166 168 165 167 171 152 128 109 82 59 42 35 30 28 23 21 22 18 16 18 19 17 15 13 11 10 7 6 5 3 3 1 1 0 360 360 359 358 356 355 353 348 344 342 339 336 332 329 325 322 320 319 317 315 313 311 310 308 305 302 299 297 294 292 289 283 275 271 271 273 274 272 271 270 267 262 260 260 259 259 258 257
174 173 173 173 171 172 178 181 169 147 129 108 85 62 53 42 39 33 32 29 22 22 23 23 20 18 17 15 14 12 11 9 7 5 3 2 1 1 0 358 357 356 354 353 348 343 339 337 335 331 328 325 321 318 316 314 313 311 309 308 306 304 301 299 297 295 292 290 288 283 276 271 270 271 271 270 270 269 264 260 258 258 259 257 256
177 176 176 177 172 177 185 184 179 162 147 138 123 97 79 62 55 46 41 37 30 31 30 27 23 20 20 18 19 17 15 13 10 8 5 2 1 360 358 356 355 354 351 350 347 344 340 338 334 328 324 321 318 317 315 311 309 309 307 306 304 301 298 297 296 295 293 290 288 286 281 276 271 270 269 269 269 269 267 262 259 257 257 257 255
178 179 179 179 176 183 190 189 185 176 168 155 140 113 91 73 66 54 47 42 37 39 34 29 25 22 22 20 19 18 15 12 9 6 4 2 360 358 356 354 352 351 349 346 345 344 342 339 335 329 322 317 313 312 312 309 307 306 305 303 302 301 297 294 292 292 291 290 288 286 283 280 276 272 270 269 270 270 269 266 261 257 256 256 255
181 183 181 180 183 190 195 194 190 185 177 163 149 136 112 90 77 62 50 42 38 39 34 26 23 21 20 18 17 15 12 10 7 4 3 0 358 357 355 353 350 348 346 344 343 342 340 338 336 332 326 321 314 310 308 305 302 302 302 301 300 298 296 295 292 289 287 287 287 286 284 280 278 275 272 270 269 269 268 267 264 259 256 254 255
182 184 183 184 190 196 197 196 195 192 182 170 163 160 151 121 85 65 47 37 33 31 27 21 20 19 15 14 13 11 8 6 4 2 1 359 357 356 354 352 349 345 344 342 341 340 339 337 335 332 328 324 318 315 311 305 301 299 298 297 296 294 294 292 290 288 286 285 284 284 284 282 279 276 274 271 269 268 267 267 266 262 258 254 253
183 183 186 188 194 197 198 198 196 194 186 176 175 178 183 170 105 59 42 25 27 25 19 15 15 13 8 7 6 4 2 0 1 359 359 356 354 353 351 349 347 344 342 340 338 337 336 334 333 331 328 325 320 317 314 308 304 301 299 297 294 292 291 289 287 286 285 285 283 281 281 281 281 277 275 273 270 268 267 266 266 264 260 256 253
187 186 189 192 196 197 199 200 197 196 190 185 188 195 205 200 210 23 28 16 21 19 11 9 8 5 360 359 358 357 354 355 357 357 356 354 352 350 349 347 344 342 340 338 336 334 332 331 331 330 327 325 320 317 313 309 305 302 299 297 295 293 290 287 285 284 283 283 282 280 278 278 278 278 276 275 272 269 266 264 265 264 262 258 254
192 191 192 193 197 199 200 201 199 198 194 194 199 205 214 215 224 307 4 5 11 8 0 356 357 356 351 350 350 348 348 350 353 354 354 352 349 347 345 343 342 339 336 335 334 331 330 328 328 327 323 320 317 316 313 309 305 301 298 294 293 291 288 286 284 283 282 280 278 277 276 275 275 275 275 273 272 269 266 263 262 263 262 259 256
195 195 195 195 198 199 200 201 200 200 199 200 206 213 219 221 232 274 337 350 358 354 343 340 346 347 343 342 342 342 343 347 351 352 351 349 346 343 341 340 339 336 334 333 331 330 328 325 321 319 316 314 312 311 309 306 301 298 296 293 291 288 284 283 281 281 280 278 276 274 273 273 273 273 272 271 271 269 267 264 261 261 261 258 256
196 198 199 200 200 199 199 200 201 201 202 205 210 219 221 223 238 257 313 336 342 338 327 325 336 337 336 336 336 338 340 345 349 348 347 345 342 340 338 337 336 334 332 330 329 328 327 322 315 311 310 307 304 303 303 299 295 292 292 290 289 285 282 280 279 278 276 274 273 273 272 272 271 270 269 270 270 269 267 265 263 261 259 258 255
196 198 200 200 199 199 199 199 202 203 204 208 213 220 224 229 242 259 296 328 328 322 318 320 328 328 329 331 331 334 338 343 345 344 343 340 339 337 335 334 333 331 329 328 329 328 325 320 313 309 308 302 297 296 297 296 292 288 286 286 286 283 281 280 278 276 273 271 271 272 272 271 269 268 267 267 268 268 266 264 262 259 258 256 254
197 198 198 198 198 197 198 199 202 203 205 210 214 219 225 232 245 263 284 323 321 307 311 317 320 320 323 327 328 332 337 340 342 341 339 337 336 334 332 332 331 329 327 326 325 323 320 316 310 307 305 300 293 288 289 292 290 287 284 282 281 280 280 278 275 273 271 270 270 270 269 268 267 266 266 264 264 265 265 263 259 257 255 254 254
197 198 196 197 198 196 197 199 200 203 207 210 214 218 224 236 253 270 292 320 312 299 306 312 313 317 320 323 326 329 333 338 339 338 337 335 333 331 330 330 328 327 324 322 320 318 315 310 306 303 297 294 289 280 283 290 290 291 291 288 284 279 276 273 270 268 268 269 269 268 267 266 266 265 265 264 262 263 264 261 257 254 253 252 252
195 196 198 198 196 196 198 199 200 204 207 210 213 218 225 238 255 275 300 315 305 298 307 310 310 315 320 320 322 326 331 337 338 337 335 333 331 330 328 327 326 325 321 318 316 315 312 307 302 300 293 287 284 282 287 291 291 300 308 304 299 290 275 265 261 262 263 265 265 265 264 264 264 264 264 263 261 260 261 258 255 252 251 249 248
196 197 199 198 195 195 197 197 201 204 205 209 213 219 228 240 258 278 300 307 301 297 303 306 310 317 321 320 321 326 331 336 337 335 333 331 330 328 327 326 324 322 318 315 313 312 310 305 300 297 296 292 286 283 283 283 288 302 308 299 303 312 294 270 260 260 260 261 262 262 263 262 263 264 265 263 262 259 257 255 253 250 248 247 245
196 197 198 196 196 197 197 197 200 203 205 209 213 219 227 240 260 281 294 295 294 293 297 302 309 316 319 319 323 327 331 334 335 333 331 329 328 326 324 322 320 319 316 311 308 306 304 301 296 291 292 293 291 288 279 272 274 283 294 291 300 305 289 291 298 280 271 267 264 261 261 262 263 265 266 265 265 264 262 257 253 251 248 246 244
197 198 198 197 198 199 199 197 199 202 204 208 211 217 225 236 252 272 283 285 287 286 288 297 306 309 311 316 320 324 328 332 332 331 329 327 325 323 320 317 315 314 310 305 301 299 295 291 288 284 282 283 290 293 287 273 263 252 246 263 287 276 266 297 312 292 280 275 270 265 261 261 262 264 266 269 270 271 271 265 258 254 250 247 244
200 200 199 200 201 200 198 196 198 201 203 207 210 215 223 233 244 256 265 272 280 281 282 292 301 305 307 313 318 323 327 329 330 328 327 324 321 319 316 312 311 309 306 301 296 293 289 285 282 279 278 278 284 289 287 281 270 257 244 243 251 257 273 298 305 292 286 277 270 268 264 261 262 264 265 267 269 271 272 271 268 262 254 248 244
200 200 200 201 201 199 197 197 198 200 202 205 210 216 224 234 246 254 261 266 275 284 292 297 303 308 310 313 318 324 328 328 328 327 326 323 320 318 315 311 309 306 304 298 293 290 286 283 282 279 280 280 279 279 282 286 282 267 251 246 250 254 262 270 271 279 291 281 269 267 266 263 261 261 262 263 266 271 273 274 274 272 265 254 244
199 198 199 201 200 197 197 196 197 200 202 205 210 219 226 235 246 253 260 264 272 287 298 301 305 310 311 312 316 323 327 327 327 327 325 322 319 317 314 310 307 304 301 295 290 289 286 284 284 281 280 279 274 272 276 281 280 274 266 258 256 256 257 257 259 265 277 283 276 270 267 266 262 260 260 261 264 269 272 275 276 275 273 266 249
199 198 199 200 198 197 196 195 197 200 203 207 212 220 228 237 245 250 260 267 275 287 296 299 303 307 308 310 314 320 325 326 325 325 322 320 317 314 311 307 304 301 298 292 288 288 287 285 285 282 279 276 272 269 271 271 271 273 273 270 266 264 260 256 259 262 264 270 276 274 268 268 265 259 257 258 260 265 270 274 276 275 273 274 264
199 199 200 199 198 196 194 194 197 200 203 209 213 220 228 237 245 250 261 271 280 289 296 299 303 307 305 307 314 320 324 324 323 321 319 317 313 310 307 304 301 299 296 291 289 289 288 285 284 281 277 275 272 267 266 266 267 268 269 269 269 266 261 257 253 254 257 260 264 269 268 266 266 261 257 258 260 263 269 271 274 276 274 273 274
199 199 199 199 197 194 194 195 198 201 205 212 216 222 229 237 246 251 260 273 283 290 295 299 307 309 304 308 318 322 323 321 319 318 316 314 311 307 304 301 299 298 296 294 291 290 289 287 284 281 277 273 271 268 265 264 264 266 266 264 263 261 259 257 253 251 254 257 259 265 265 263 265 265 261 261 262 263 268 272 273 275 276 274 274